TimeEST,TemperatureF,Dew PointF,Humidity,Sea Level PressureIn,VisibilityMPH,Wind Direction,Wind SpeedMPH,Gust SpeedMPH,PrecipitationIn,Events,Conditions,WindDirDegrees,DateUTC
12:53 AM,37.9,27.0,65,30.13,10.0,WSW,4.6,-,N/A,,Overcast,250,2013-01-07 05:53:00
1:53 AM,37.0,27.0,67,30.15,10.0,WNW,4.6,-,N/A,,Overcast,300,2013-01-07 06:53:00
2:53 AM,37.9,28.0,68,30.17,10.0,WNW,9.2,-,N/A,,Overcast,290,2013-01-07 07:53:00
3:53 AM,37.9,27.0,65,30.19,10.0,West,9.2,-,N/A,,Overcast,270,2013-01-07 08:53:00
4:53 AM,37.9,28.0,68,30.21,10.0,West,8.1,-,N/A,,Overcast,270,2013-01-07 09:53:00
5:53 AM,37.0,27.0,67,30.23,10.0,West,8.1,-,N/A,,Overcast,270,2013-01-07 10:53:00
6:53 AM,37.0,26.1,65,30.27,10.0,WNW,10.4,-,N/A,,Mostly Cloudy,290,2013-01-07 11:53:00
7:53 AM,37.0,27.0,67,30.30,10.0,WNW,9.2,-,N/A,,Overcast,290,2013-01-07 12:53:00
8:53 AM,37.9,27.0,65,30.33,10.0,WNW,8.1,-,N/A,,Partly Cloudy,290,2013-01-07 13:53:00
9:53 AM,39.9,27.0,60,30.37,10.0,WNW,12.7,-,N/A,,Overcast,300,2013-01-07 14:53:00
10:53 AM,41.0,27.0,57,30.38,10.0,WNW,15.0,-,N/A,,Overcast,290,2013-01-07 15:53:00
11:53 AM,41.0,27.0,57,30.38,10.0,WNW,13.8,-,N/A,,Overcast,290,2013-01-07 16:53:00
12:53 PM,42.1,25.0,51,30.37,10.0,NW,11.5,-,N/A,,Overcast,320,2013-01-07 17:53:00
1:53 PM,43.0,25.0,49,30.38,10.0,NW,6.9,-,N/A,,Overcast,310,2013-01-07 18:53:00
2:53 PM,42.1,25.0,51,30.39,10.0,West,9.2,-,N/A,,Overcast,280,2013-01-07 19:53:00
3:53 PM,39.9,24.1,53,30.40,10.0,WNW,8.1,-,N/A,,Overcast,290,2013-01-07 20:53:00
4:53 PM,36.0,23.0,59,30.40,10.0,West,4.6,-,N/A,,Clear,270,2013-01-07 21:53:00
6:53 PM,32.0,23.0,69,30.43,8.0,West,3.5,-,N/A,,Clear,280,2013-01-07 23:53:00
7:53 PM,30.9,23.0,72,30.43,7.0,West,3.5,-,N/A,,Clear,260,2013-01-08 00:53:00
8:53 PM,32.0,23.0,69,30.41,8.0,Calm,Calm,-,N/A,,Clear,0,2013-01-08 01:53:00
9:53 PM,27.0,21.0,78,30.41,7.0,Calm,Calm,-,N/A,,Clear,0,2013-01-08 02:53:00
10:53 PM,27.0,21.9,81,30.41,6.0,Calm,Calm,-,N/A,,Haze,0,2013-01-08 03:53:00
11:53 PM,27.0,21.9,81,30.40,4.0,Calm,Calm,-,N/A,,Haze,0,2013-01-08 04:53:00